Regional Weather Roundup
Issued by NWS

Home | Current Version | Previous Version | Graphics & Text | Print | Product List | Glossary Off
Versions: 1 2 3 4 5 6 7 8 9 10 11 12 13 14 15 16 17 18 19 20 21 22 23 24 25 26 27 28 29 30 31 32 33 34 35 36 37 38 39 40 41 42 43 44 45 46 47 48 49 50

000
ASUS43 KMKX 060924
RWRWI

WISCONSIN REGIONAL WEATHER ROUNDUP
NATIONAL WEATHER SERVICE MILWAUKEE/SULLIVAN WI
300 AM CST FRI MAR 06 2015

NOTE: "FAIR" INDICATES FEW OR NO CLOUDS BELOW 12,000 FEET WITH NO
SIGNIFICANT WEATHER AND/OR OBSTRUCTIONS TO VISIBILITY.

WIZ001-002-006>008-014>016-023>028-061000-
NORTHWEST WISCONSIN

CITY           SKY/WX    TMP DP  RH WIND       PRES   REMARKS
SUPERIOR ARPT  CLEAR      9   1  69 SW14      30.10F WCI  -8
ASHLAND        CLEAR      6  -2  69 SW16      30.12F WCI -12
HAYWARD        CLEAR      5  -3  69 S12       30.13F WCI -11
SIREN          PTCLDY    11   2  65 S9        30.13F WCI  -1
CUMBERLAND     CLOUDY     1  -4  78 S6        30.15F WCI -10
RICE LAKE      CLOUDY     2  -3  77 SE7       30.20F WCI -10
CHETEK         PTCLDY    -2  -6  83 E6        30.20F WCI -14
LADYSMITH      PTCLDY     0  -4  80 SE3       30.21F
EAU CLAIRE     PTCLDY     2  -5  72 S8        30.23F WCI -12
MENOMONIE      CLOUDY     3  -3  77 SE6       30.23F WCI  -8
NEW RICHMOND   CLOUDY    10   1  67 S14       30.16F WCI  -5
OSCEOLA        CLOUDY    10   2  70 S8        30.19F WCI  -1
$$

WIZ003>005-009-010-017-018-061000-
NORTH CENTRAL WISCONSIN

CITY           SKY/WX    TMP DP  RH WIND       PRES   REMARKS
MANITOWISH WTR PTCLDY    -1  -6  79 SW8       30.13F WCI -15
ARBOR VITAE    PTCLDY    -4  -9  76 S6        30.14F WCI -16
WOODRUFF       PTCLDY    -4  -9  76 S6        30.14F WCI -16
RHINELANDER    PTCLDY    -1  -8  72 SW12      30.17F WCI -18
EAGLE RIVER    PTCLDY    -2 -10  70 CALM      30.14F
LAND O LAKES   CLEAR     -3  -8  77 CALM      30.13F
PHILLIPS       CLEAR     -1  -6  81 S6        30.16F WCI -13
TOMAHAWK       PTCLDY    -7 -11  82 CALM      30.19F
MEDFORD        PTCLDY    -3  -8  79 S7        30.20F WCI -17
MERRILL        PTCLDY   -15 -20  78 CALM      30.23F
$$

WIZ029-030-035-036-043>047-061000-
CENTRAL WISCONSIN

CITY           SKY/WX    TMP DP  RH WIND       PRES   REMARKS
WAUSAU         PTCLDY    -1  -7  75 SW3       30.25F
MOSINEE        PTCLDY    -4  -8  84 S9        30.26F WCI -20
MARSHFIELD     PTCLDY    -4  -9  79 S7        30.25F WCI -18
STEVENS POINT  PTCLDY    -3  -8  79 SW3       30.29F
WAUPACA        PTCLDY     1  -7  67 S3        30.34F
WAUTOMA        PTCLDY    -5 -11  75 S5        30.34F WCI -16
WISC RAPIDS    PTCLDY    -4 -10  75 S3        30.31F
CAMP DOUGLAS   PTCLDY     2  -4  77 S5        30.31F WCI  -7
$$

WIZ011>013-019>022-031-037>040-048>050-061000-
NORTHEAST WISCONSIN

CITY           SKY/WX    TMP DP  RH WIND       PRES   REMARKS
ANTIGO         MOCLDY    -3  -8  79 SW12      30.20F WCI -21
SHAWANO        PTCLDY     4  -6  64 SW3       30.32F
OCONTO         PTCLDY     0  -8  70 SW5       30.33F WCI -10
STURGEON BAY   PTCLDY     5  -8  56 SW12      30.33F WCI -11
GREEN BAY      PTCLDY     2  -6  69 S9        30.35F WCI -13
MANITOWOC      PTCLDY     3  -4  72 SW7       30.37F WCI  -9
APPLETON       PTCLDY     3  -6  66 SW8       30.33F WCI -10
CLINTONVILLE   PTCLDY     0  -8  71 SW5       30.32F WCI -10
OSHKOSH        PTCLDY     1  -7  68 S6        30.35F WCI -10
$$

WIZ032>034-041-042-053>061-061000-
SOUTHWEST WISCONSIN

CITY           SKY/WX    TMP DP  RH WIND       PRES   REMARKS
LA CROSSE      CLEAR      4  -4  69 S12       30.33F WCI -12
SPARTA         PTCLDY    -4  -8  81 CALM      30.32F
VIROQUA        CLEAR      1  -5  76 S9        30.28F WCI -14
BOSCOBEL       PTCLDY    -8 -14  74 CALM      30.39F
PRAIRIE DU CHI PTCLDY    -1  -8  74 CALM      30.38F
PLATTEVILLE    MOCLDY     1  -6  74 SE10      30.37F WCI -16
$$

WIZ056-057-062-063-064-067-068-061000-
SOUTH CENTRAL WISCONSIN

CITY           SKY/WX    TMP DP  RH WIND       PRES   REMARKS
REEDSBURG      MOCLDY     1  -5  73 S7        30.34F WCI -11
BARABOO/DELLS  MOCLDY    -1  -7  74 CALM      30.34F
LONE ROCK      MOCLDY    -3  -9  75 NE3       30.39F
MINERAL POINT  PTCLDY     1  -6  71 S8        30.34F WCI -12
MADISON        MOCLDY     3  -6  66 S5        30.38F WCI  -6
MIDDLETON      MOCLDY     4  -5  65 SW7       30.37F WCI  -8
WATERTOWN      PTCLDY    -1  -7  77 CALM      30.39F
MONROE         MOCLDY     0  -6  78 S10       30.37F WCI -17
JANESVILLE     MOCLDY     1  -6  71 S5        30.42F WCI  -8
$$

WIZ051-052-058>065-066-070>072-061000-
SOUTHEAST WISCONSIN

CITY           SKY/WX    TMP DP  RH WIND       PRES   REMARKS
MILWAUKEE      PTCLDY     2  -8  63 SW7       30.43F WCI -11
WAUKESHA       PTCLDY     0  -8  71 SW5       30.41F WCI -10
MILWAUKEE/TIMM PTCLDY     1  -8  66 SW6       30.43F WCI -10
RACINE         PTCLDY    -1  -9  68 SW6       30.45F WCI -13
BURLINGTON     PTCLDY   -15 -19  79 CALM      30.43F
KENOSHA        PTCLDY    -1  -7  75 SW8       30.44F WCI -15
FOND DU LAC    PTCLDY     3  -6  66 S8        30.37F WCI -10
SHEBOYGAN      PTCLDY    -1  -8  72 SW9       30.38F WCI -16
WEST BEND      MOCLDY     3  -6  66 SW7       30.38F WCI  -9
JUNEAU         PTCLDY     0  -7  74 S6        30.38F WCI -12
$$

LSZ147-162-061000-
LAKE SUPERIOR

STATION/POSITION TIME  TEMP    WIND        PRES    WAVE
                       AIR SEA DIR/SP/G            HT/PER
                 (UTC) (F)     (DEG/KT/KT) (MB)    (FT/S)
DEVILS ISLAND    0900    7     200/  7/  9 1020.7F
PORT WING        0700    9     190/ 11/ 14 1021.7F
SAXON HARBOR     0820   10     200/ 11/ 20 1020.7F
$$

LMZ867-665-643>646-061000-
LAKE MICHIGAN

STATION/POSITION TIME  TEMP    WIND        PRES    WAVE
                       AIR SEA DIR/SP/G            HT/PER
                 (UTC) (F)     (DEG/KT/KT) (MB)    (FT/S)
NORTHPORT PIER   0823    7     210/  3/ 11 1026.8F
SISTER BAY       0828    7     250/ 12/ 15   N/A
KEWAUNEE LAKESHO 0900    4     240/  4/  9 1026.9F
SHEBOYGAN LAKESH 0900    7     230/ 10/ 12 1030.9F
PORT WASHINGTON  0840    4     250/  3/  5 1030.8F
MILWAUKEE LAKESH 0900    6     230/ 10/ 12   N/A
KENOSHA   LAKESH 0900    3     210/  6/  7 1030.8F
$$

TC  - TEMPERATURE IN CELSIUS
VSB - VISIBILITY IN STATUTE MILES
WCI - WIND CHILL INDEX
HX  - HEAT INDEX



USA.gov is the U.S. government's official web portal to all federal, state and local government web resources and services.